カタログに戻る

STARLINK-35940

運用中通信VLEO
NORAD 66617·PAYLOAD·🇺🇸 United States

打ち上げ Nov 23, 2025 から Vandenberg Space Force Base

Loading…

次のパス (今後24時間)

TLE

最新Source: CelesTrak SupGP

元期: Sep 15, 2026, 02:56 UTC

1 66617C 25271A   26258.12270833  .00063786  00000+0  18844-2 0  2586
2 66617  53.1597 338.7259 0001188  89.9288  79.1496 15.34361647    14

AllMySatでSTARLINK-35940をリアルタイム追跡

Download on the App Store